KDVTKHII

Guest
Details From KDVT - PHOENIX DEER VALLEY
To KHII - LAKE HAVASU CITY
Flight Number -
Tags generated
Created
Modified
Stats Distance 129 nm / 239 km
Max Altitude 7,600 ft / 2,316 m
Waypoints 3
Social Downloads 0
Likes 0
Share VATSIM

Download

Looking for another format? Having issues loading an existing format? Contact us
Advertisement - Login to hide

Notes

Basic altitude profile: - Ascent Rate: 2500ft/min - Ascent Speed: 250kts - Cruise Altitude: 35000ft - Cruise Speed: 420kts - Descent Rate: 1500ft/min - Descent Speed: 250kts Options: - Use NATs: yes - Use PACOTS: yes - Use low airways: yes - Use high airways: yes

Route

KDVT HIPPI KHII

ID Type Via Altitude Latitude Longitude Leg Dist Tot Dist Heading (true) Name
O KDVT APT - 0 ft / 0 m 33.68860˚ -112.08244˚ - 0 nm - PHOENIX DEER VALLEY
HIPPI FIX - 7,600 ft / 2,316 m 34.56229˚ -113.63937˚ 93 nm 93 nm 305° / 304° -
O KHII APT - 0 ft / 0 m 34.57112˚ -114.35828˚ 35 nm 129 nm 271° / 271° LAKE HAVASU CITY

Altitude Profile

Advertisement - Login to hide

KDVT

Details ICAO KDVT (DVT)
Name PHOENIX DEER VALLEY
Region United States
Timezone America/Phoenix (UTC-7.0)
Stats Elevation 1,478 ft / 450 m (AMSL)
Location 33.688604° -112.082441°
Runways 2
Magnetic Variation 10.375° E

METAR

KDVT 182153Z 25007KT 10SM CLR 18/01 A3008 RMK AO2 SLP175 T01830011

Decode

TAF

Not found

Departure Runways

ID Width Length Bearing (true) Bearing (mag) Surface Threshold Offset Overrun Length
07L 75 ft / 23 m 4,491 ft / 1,369 m 86.00° 75.62° Asphalt 0 ft / 0 m 0 ft / 0 m
07R 100 ft / 30 m 8,192 ft / 2,497 m 85.98° 75.60° Asphalt 897 ft / 273 m 154 ft / 47 m
25L 100 ft / 30 m 8,192 ft / 2,497 m 266.00° 255.62° Asphalt 930 ft / 283 m 140 ft / 43 m
25R 75 ft / 23 m 4,491 ft / 1,369 m 266.01° 255.63° Asphalt 0 ft / 0 m 0 ft / 0 m

KHII

Details ICAO KHII (HII)
Name LAKE HAVASU CITY
Region United States
Timezone America/Phoenix (UTC-7.0)
Stats Elevation 781 ft / 238 m (AMSL)
Location 34.571123° -114.358277°
Runways 1
Magnetic Variation 11.176° E

METAR

KHII 182155Z AUTO 31012G16KT 10SM CLR 18/M09 A3012 RMK AO2

Decode

TAF

Not found

Destination Runways

ID Width Length Bearing (true) Bearing (mag) Surface Threshold Offset Overrun Length
14 100 ft / 30 m 8,012 ft / 2,442 m 149.75° 138.57° Asphalt 0 ft / 0 m 200 ft / 61 m
32 100 ft / 30 m 8,012 ft / 2,442 m 329.76° 318.58° Asphalt 0 ft / 0 m 200 ft / 61 m

Popular Alternatives